AAL73 KLAX-YSSY

Flight info

Callsign AAL73
Flight time N/A
Altitude 30000
Route SUMMR2 FICKY B577 TUT G457 FAROA DCT MALNI G595 ATNAT DCT RIKNI N774 MARLN
Aircraft B77W/H-SDE1E2E3FGHIJ2J3J4J5M1RWXY/LB1D1

Departure

Time 2026-05-06 06:47
Airport Los Angeles International Airport (KLAX)

Arrival

Time N/A
Airport Sydney Kingsford Smith International Airport (YSSY)
Time Latitude Longitude Altitude Speed Heading
2026-05-06 06:30 33.94150 -118.40867 96 ft 3 kts 289°
2026-05-06 06:31 33.94140 -118.40841 98 ft 3 kts 303°
2026-05-06 06:31 33.94126 -118.40820 96 ft 3 kts 319°
2026-05-06 06:31 33.94107 -118.40804 97 ft 3 kts 334°
2026-05-06 06:31 33.94085 -118.40794 97 ft 3 kts 346°
2026-05-06 06:32 33.94063 -118.40789 96 ft 3 kts 356°
2026-05-06 06:32 33.94039 -118.40788 97 ft 3 kts
2026-05-06 06:32 33.94016 -118.40790 100 ft 3 kts
2026-05-06 06:32 33.93993 -118.40795 97 ft 3 kts 13°
2026-05-06 06:33 33.93970 -118.40802 97 ft 3 kts 16°
2026-05-06 06:33 33.93948 -118.40810 97 ft 3 kts 20°
2026-05-06 06:33 33.93926 -118.40820 97 ft 3 kts 23°
2026-05-06 06:33 33.93905 -118.40832 97 ft 3 kts 28°
2026-05-06 06:34 33.93886 -118.40847 96 ft 3 kts 44°
2026-05-06 06:34 33.93875 -118.40864 97 ft 1 kts 83°
2026-05-06 06:37 33.93875 -118.40859 97 ft 2 kts 83°
2026-05-06 06:37 33.93877 -118.40838 98 ft 4 kts 83°
2026-05-06 06:37 33.93880 -118.40799 96 ft 6 kts 86°
2026-05-06 06:37 33.93866 -118.40755 99 ft 6 kts 132°
2026-05-06 06:38 33.93832 -118.40727 101 ft 6 kts 139°
2026-05-06 06:38 33.93814 -118.40665 103 ft 10 kts 89°
2026-05-06 06:38 33.93820 -118.40582 100 ft 10 kts 84°
2026-05-06 06:38 33.93828 -118.40500 101 ft 10 kts 84°
2026-05-06 06:39 33.93835 -118.40417 102 ft 10 kts 84°
2026-05-06 06:39 33.93844 -118.40334 100 ft 10 kts 82°
2026-05-06 06:39 33.93854 -118.40243 103 ft 12 kts 83°
2026-05-06 06:39 33.93865 -118.40137 103 ft 14 kts 83°
2026-05-06 06:40 33.93877 -118.40016 101 ft 16 kts 83°
2026-05-06 06:40 33.93890 -118.39874 100 ft 17 kts 83°
2026-05-06 06:40 33.93906 -118.39730 100 ft 17 kts 82°
2026-05-06 06:40 33.93922 -118.39587 100 ft 17 kts 82°
2026-05-06 06:41 33.93938 -118.39444 102 ft 17 kts 82°
2026-05-06 06:41 33.93953 -118.39300 101 ft 17 kts 83°
2026-05-06 06:41 33.93967 -118.39156 101 ft 17 kts 83°
2026-05-06 06:41 33.93981 -118.39014 99 ft 17 kts 83°
2026-05-06 06:42 33.93995 -118.38870 98 ft 17 kts 83°
2026-05-06 06:42 33.94009 -118.38726 100 ft 17 kts 83°
2026-05-06 06:42 33.94024 -118.38583 102 ft 17 kts 83°
2026-05-06 06:42 33.94039 -118.38439 103 ft 17 kts 83°
2026-05-06 06:43 33.94053 -118.38296 103 ft 17 kts 83°
2026-05-06 06:43 33.94067 -118.38153 98 ft 17 kts 83°
2026-05-06 06:43 33.94076 -118.38064 98 ft 5 kts 83°
2026-05-06 06:43 33.94072 -118.38026 98 ft 5 kts 116°
2026-05-06 06:44 33.94045 -118.38006 99 ft 5 kts 157°
2026-05-06 06:44 33.94014 -118.37995 99 ft 5 kts 170°
2026-05-06 06:44 33.93989 -118.38014 100 ft 5 kts 245°
2026-05-06 06:44 33.93984 -118.38044 101 ft 0 kts 259°
2026-05-06 06:45 33.93982 -118.38052 99 ft 7 kts 259°
2026-05-06 06:46 33.93950 -118.38336 104 ft 69 kts 263°
2026-05-06 06:46 33.93864 -118.39190 101 ft 135 kts 263°
2026-05-06 06:46 33.93720 -118.40553 102 ft 190 kts 262°
2026-05-06 06:46 33.93542 -118.42185 472 ft 198 kts 261°
2026-05-06 06:47 33.93361 -118.43854 928 ft 205 kts 263°
2026-05-06 06:47 33.93205 -118.45571 1489 ft 204 kts 264°
2026-05-06 06:47 33.93067 -118.47256 1952 ft 208 kts 264°
2026-05-06 06:47 33.92921 -118.49041 2117 ft 217 kts 264°
2026-05-06 06:48 33.92775 -118.50870 2407 ft 223 kts 264°
2026-05-06 06:48 33.92628 -118.52751 2725 ft 228 kts 264°
2026-05-06 06:48 33.92481 -118.54683 3040 ft 236 kts 264°
2026-05-06 06:48 33.92308 -118.56687 3405 ft 242 kts 264°
2026-05-06 06:49 33.92144 -118.58703 3914 ft 243 kts 264°
2026-05-06 06:49 33.91975 -118.60738 4350 ft 247 kts 264°
2026-05-06 06:49 33.91794 -118.62815 4765 ft 251 kts 264°
2026-05-06 06:49 33.91711 -118.64931 5216 ft 254 kts 269°
2026-05-06 06:50 33.91714 -118.67098 5519 ft 265 kts 271°
2026-05-06 06:50 33.91725 -118.69368 5787 ft 275 kts 271°
2026-05-06 06:50 33.91731 -118.71667 6211 ft 281 kts 271°
2026-05-06 06:50 33.91731 -118.74036 6669 ft 286 kts 270°
2026-05-06 06:51 33.91726 -118.76463 7067 ft 293 kts 270°
2026-05-06 06:51 33.91716 -118.78934 7524 ft 297 kts 271°
2026-05-06 06:51 33.91705 -118.81437 7978 ft 301 kts 271°
2026-05-06 06:52 33.91945 -118.91843 9753 ft 320 kts 275°
2026-05-06 06:52 33.92031 -118.94541 10166 ft 325 kts 275°
2026-05-06 06:53 33.92115 -118.97294 10308 ft 341 kts 274°
2026-05-06 06:53 33.92196 -119.00217 10444 ft 355 kts 272°
2026-05-06 06:53 33.91841 -119.03202 10502 ft 370 kts 250°
2026-05-06 06:53 33.90769 -119.06074 10641 ft 383 kts 245°
2026-05-06 06:54 33.89626 -119.09034 10961 ft 394 kts 246°
2026-05-06 06:54 33.88487 -119.12060 11460 ft 399 kts 247°
2026-05-06 06:54 33.87353 -119.15127 12101 ft 401 kts 247°
2026-05-06 06:54 33.86226 -119.18202 12820 ft 402 kts 248°
2026-05-06 06:55 33.85097 -119.21294 13528 ft 404 kts 248°
2026-05-06 06:55 33.83963 -119.24406 14158 ft 407 kts 248°
2026-05-06 06:55 33.82818 -119.27548 14631 ft 413 kts 248°
2026-05-06 06:55 33.81654 -119.30736 15121 ft 418 kts 248°
2026-05-06 06:56 33.80443 -119.33870 15626 ft 420 kts 241°
2026-05-06 06:56 33.78587 -119.36604 15984 ft 428 kts 219°
2026-05-06 06:56 33.76183 -119.38716 16379 ft 431 kts 216°
2026-05-06 06:56 33.73761 -119.40872 16852 ft 436 kts 217°
2026-05-06 06:57 33.71342 -119.43100 17420 ft 439 kts 218°
2026-05-06 06:57 33.68921 -119.45361 17991 ft 442 kts 218°
2026-05-06 06:57 33.66492 -119.47643 18499 ft 446 kts 218°
2026-05-06 06:57 33.64036 -119.49951 18924 ft 450 kts 218°
2026-05-06 06:58 33.61556 -119.52278 19323 ft 455 kts 218°
2026-05-06 06:58 33.59046 -119.54629 19716 ft 460 kts 218°
2026-05-06 06:58 33.56504 -119.57007 20079 ft 466 kts 218°
2026-05-06 06:58 33.53934 -119.59407 20518 ft 470 kts 218°
2026-05-06 06:59 33.51348 -119.61820 20953 ft 473 kts 218°
2026-05-06 06:59 33.48737 -119.64252 21366 ft 477 kts 218°
2026-05-06 06:59 33.46136 -119.66675 21766 ft 482 kts 218°
2026-05-06 06:59 33.43480 -119.69146 22159 ft 486 kts 217°
2026-05-06 07:00 33.40793 -119.71644 22530 ft 491 kts 217°
2026-05-06 07:00 33.38079 -119.74165 22878 ft 496 kts 217°
2026-05-06 07:00 33.35336 -119.76711 23277 ft 500 kts 217°
2026-05-06 07:00 33.32576 -119.79272 23673 ft 503 kts 217°
2026-05-06 07:01 33.29801 -119.81844 24003 ft 506 kts 217°
2026-05-06 07:01 33.27009 -119.84430 24315 ft 509 kts 217°
2026-05-06 07:01 33.24196 -119.87033 24641 ft 512 kts 217°
2026-05-06 07:01 33.21366 -119.89650 24973 ft 515 kts 217°
2026-05-06 07:02 33.18556 -119.92245 25313 ft 517 kts 217°
2026-05-06 07:02 33.15705 -119.94877 25646 ft 520 kts 217°
2026-05-06 07:02 33.12830 -119.97527 25968 ft 523 kts 217°
2026-05-06 07:02 33.09951 -120.00180 26365 ft 523 kts 217°
2026-05-06 07:03 33.07061 -120.02841 26737 ft 524 kts 217°
2026-05-06 07:03 33.04165 -120.05505 27028 ft 527 kts 217°
2026-05-06 07:03 33.01251 -120.08183 27291 ft 530 kts 217°
2026-05-06 07:03 32.98316 -120.10879 27564 ft 533 kts 217°
2026-05-06 07:04 32.95365 -120.13587 27824 ft 535 kts 217°
2026-05-06 07:04 32.92449 -120.16260 28121 ft 537 kts 217°
2026-05-06 07:04 32.89480 -120.18979 28398 ft 539 kts 217°
2026-05-06 07:04 32.86500 -120.21706 28648 ft 541 kts 217°
2026-05-06 07:05 32.83508 -120.24442 28884 ft 543 kts 217°
2026-05-06 07:05 32.80507 -120.27182 29205 ft 543 kts 218°
2026-05-06 07:05 32.77526 -120.29902 29761 ft 538 kts 218°
2026-05-06 07:05 32.74559 -120.32608 30181 ft 536 kts 218°
2026-05-06 07:06 32.71590 -120.35316 30121 ft 540 kts 218°
2026-05-06 07:06 32.65644 -120.40729 30096 ft 537 kts 218°
2026-05-06 07:07 32.60713 -120.45210 30137 ft 535 kts 218°
2026-05-06 07:07 32.54802 -120.50574 30140 ft 535 kts 218°
2026-05-06 07:08 32.48895 -120.55927 30158 ft 534 kts 219°
2026-05-06 07:08 32.43009 -120.61257 30136 ft 532 kts 219°
2026-05-06 07:09 32.37143 -120.66561 30146 ft 530 kts 219°
2026-05-06 07:09 32.31320 -120.71816 30147 ft 528 kts 219°
2026-05-06 07:10 32.25475 -120.77082 30149 ft 528 kts 219°
2026-05-06 07:10 32.19626 -120.82343 30161 ft 528 kts 220°
2026-05-06 07:11 32.13839 -120.87535 30145 ft 516 kts 220°
2026-05-06 07:11 32.08123 -120.92661 30165 ft 517 kts 220°
2026-05-06 07:12 32.02410 -120.97778 30144 ft 519 kts 220°
2026-05-06 07:12 31.96655 -121.02922 30146 ft 520 kts 220°
2026-05-06 07:13 31.90885 -121.08069 30159 ft 520 kts 220°
2026-05-06 07:13 31.85120 -121.13204 30154 ft 519 kts 220°
2026-05-06 07:14 31.79356 -121.18329 30161 ft 519 kts 220°
2026-05-06 07:14 31.73596 -121.23444 30165 ft 518 kts 220°
2026-05-06 07:15 31.67894 -121.28499 30149 ft 516 kts 219°
2026-05-06 07:15 31.62159 -121.33578 30152 ft 516 kts 219°
2026-05-06 07:16 31.56432 -121.38662 30169 ft 512 kts 222°
2026-05-06 07:16 31.53924 -121.41543 30152 ft 499 kts 235°
2026-05-06 07:16 31.51862 -121.44784 30151 ft 495 kts 238°
2026-05-06 07:17 31.47913 -121.51393 30167 ft 496 kts 238°
2026-05-06 07:17 31.43885 -121.57996 30158 ft 499 kts 237°
2026-05-06 07:18 31.39784 -121.64511 30169 ft 501 kts 237°
2026-05-06 07:18 31.35612 -121.71057 30166 ft 502 kts 236°
2026-05-06 07:19 31.31432 -121.77601 30163 ft 502 kts 236°
2026-05-06 07:19 31.27253 -121.84144 30161 ft 501 kts 236°
2026-05-06 07:20 31.23082 -121.90671 30161 ft 501 kts 236°
2026-05-06 07:20 31.18912 -121.97186 30161 ft 500 kts 236°
2026-05-06 07:21 31.14741 -122.03689 30177 ft 499 kts 236°
2026-05-06 07:21 31.10592 -122.10147 30168 ft 496 kts 236°
2026-05-06 07:22 31.06474 -122.16547 30158 ft 494 kts 236°
2026-05-06 07:22 31.02345 -122.22955 30167 ft 493 kts 236°
2026-05-06 07:23 30.98220 -122.29346 30180 ft 493 kts 236°
2026-05-06 07:23 30.94086 -122.35742 30161 ft 494 kts 236°
2026-05-06 07:24 30.89965 -122.42105 30174 ft 495 kts 236°
2026-05-06 07:24 30.85801 -122.48525 30176 ft 497 kts 236°
2026-05-06 07:25 30.81625 -122.54953 30175 ft 498 kts 236°
2026-05-06 07:25 30.77438 -122.61387 30175 ft 499 kts 236°
2026-05-06 07:26 30.73270 -122.67780 30171 ft 499 kts 236°
2026-05-06 07:26 30.69078 -122.74201 30178 ft 498 kts 236°
2026-05-06 07:27 30.64887 -122.80610 30179 ft 498 kts 236°
2026-05-06 07:27 30.60699 -122.87005 30181 ft 497 kts 236°
2026-05-06 07:28 30.56509 -122.93395 30171 ft 496 kts 236°
2026-05-06 07:28 30.50267 -123.02897 30183 ft 496 kts 236°
2026-05-06 07:29 30.46089 -123.09268 30185 ft 496 kts 236°
2026-05-06 07:29 30.41909 -123.15638 30186 ft 496 kts 236°
2026-05-06 07:30 30.37721 -123.22011 30183 ft 497 kts 236°
2026-05-06 07:30 30.33556 -123.28336 30190 ft 498 kts 236°
2026-05-06 07:31 30.29357 -123.34702 30190 ft 497 kts 236°
2026-05-06 07:31 30.25153 -123.41066 30185 ft 497 kts 236°
2026-05-06 07:32 30.20953 -123.47413 30186 ft 496 kts 236°
2026-05-06 07:32 30.16752 -123.53751 30188 ft 496 kts 236°
2026-05-06 07:33 30.12553 -123.60077 30187 ft 496 kts 236°
2026-05-06 07:33 30.08355 -123.66392 30188 ft 495 kts 236°
2026-05-06 07:34 30.04181 -123.72661 30181 ft 496 kts 236°
2026-05-06 07:34 29.99966 -123.78982 30194 ft 496 kts 235°
2026-05-06 07:35 29.95748 -123.85298 30195 ft 497 kts 235°
2026-05-06 07:35 29.91521 -123.91616 30195 ft 498 kts 235°
2026-05-06 07:36 29.87301 -123.97913 30182 ft 497 kts 235°
2026-05-06 07:36 29.83082 -124.04199 30195 ft 496 kts 235°
2026-05-06 07:37 29.78887 -124.10441 30195 ft 495 kts 235°
2026-05-06 07:37 29.74670 -124.16706 30197 ft 495 kts 235°
2026-05-06 07:38 29.70453 -124.22962 30183 ft 494 kts 235°
2026-05-06 07:38 29.66233 -124.29212 30193 ft 494 kts 235°
2026-05-06 07:39 29.62020 -124.35441 30208 ft 495 kts 235°
2026-05-06 07:39 29.57788 -124.41690 30205 ft 495 kts 235°
2026-05-06 07:40 29.53560 -124.47924 30187 ft 495 kts 236°
2026-05-06 07:40 29.49321 -124.54163 30187 ft 495 kts 235°
2026-05-06 07:41 29.45082 -124.60392 30203 ft 494 kts 236°
2026-05-06 07:41 29.40881 -124.66558 30208 ft 493 kts 236°
2026-05-06 07:42 29.36658 -124.72745 30204 ft 492 kts 236°
2026-05-06 07:42 29.32449 -124.78903 30198 ft 490 kts 236°
2026-05-06 07:43 29.28242 -124.85049 30209 ft 489 kts 236°
2026-05-06 07:43 29.24045 -124.91172 30210 ft 489 kts 236°
2026-05-06 07:44 29.19842 -124.97295 30207 ft 489 kts 236°
2026-05-06 07:44 29.15662 -125.03376 30202 ft 488 kts 236°
2026-05-06 07:45 29.11459 -125.09479 30208 ft 488 kts 236°
2026-05-06 07:45 29.07251 -125.15581 30206 ft 488 kts 236°
2026-05-06 07:46 29.03046 -125.21668 30205 ft 487 kts 236°
2026-05-06 07:46 28.98853 -125.27731 30203 ft 485 kts 236°
2026-05-06 07:47 28.94673 -125.33766 30203 ft 483 kts 236°
2026-05-06 07:47 28.90525 -125.39747 30207 ft 482 kts 236°
2026-05-06 07:48 28.86362 -125.45741 30210 ft 482 kts 236°
2026-05-06 07:48 28.82198 -125.51727 30189 ft 482 kts 236°
2026-05-06 07:49 28.78026 -125.57716 30212 ft 481 kts 236°
2026-05-06 07:49 28.73859 -125.63691 30215 ft 482 kts 236°
2026-05-06 07:50 28.69683 -125.69669 30215 ft 482 kts 236°
2026-05-06 07:50 28.65498 -125.75650 30193 ft 482 kts 236°
2026-05-06 07:51 28.61386 -125.81510 30204 ft 470 kts 237°
2026-05-06 07:51 28.57324 -125.87297 30211 ft 467 kts 237°
2026-05-06 07:52 28.53264 -125.93085 30224 ft 468 kts 237°
2026-05-06 07:52 28.49187 -125.98885 30223 ft 470 kts 237°
2026-05-06 07:53 28.45095 -126.04695 30222 ft 471 kts 237°
2026-05-06 07:53 28.41016 -126.10477 30226 ft 472 kts 237°
2026-05-06 07:54 28.36899 -126.16304 30228 ft 473 kts 237°
2026-05-06 07:54 28.32776 -126.22132 30223 ft 473 kts 237°
2026-05-06 07:55 28.29362 -126.26951 30212 ft 472 kts 237°
2026-05-06 07:55 28.25258 -126.32737 30218 ft 471 kts 237°
2026-05-06 07:56 28.21153 -126.38516 30192 ft 468 kts 238°
2026-05-06 07:56 28.17079 -126.44243 30211 ft 464 kts 238°
2026-05-06 07:57 28.13040 -126.49914 30218 ft 461 kts 238°
2026-05-06 07:57 28.09046 -126.55518 30224 ft 460 kts 238°
2026-05-06 07:58 28.05018 -126.61164 30223 ft 461 kts 238°
2026-05-06 07:58 28.00976 -126.66822 30226 ft 463 kts 238°
2026-05-06 07:59 27.96910 -126.72503 30225 ft 464 kts 237°
2026-05-06 07:59 27.92834 -126.78189 30218 ft 466 kts 237°
2026-05-06 08:00 27.88762 -126.83862 30226 ft 467 kts 237°
2026-05-06 08:00 27.84672 -126.89553 30228 ft 468 kts 237°
2026-05-06 08:01 27.80559 -126.95268 30228 ft 468 kts 237°
2026-05-06 08:01 27.76468 -127.00945 30208 ft 468 kts 237°
2026-05-06 08:02 27.72359 -127.06638 30227 ft 468 kts 237°
2026-05-06 08:02 27.68246 -127.12331 30220 ft 468 kts 237°
2026-05-06 08:03 27.64124 -127.18029 30218 ft 468 kts 237°
2026-05-06 08:03 27.59999 -127.23724 30218 ft 468 kts 237°
2026-05-06 08:04 27.55900 -127.29374 30224 ft 469 kts 237°
2026-05-06 08:04 27.51771 -127.35060 30222 ft 469 kts 237°
2026-05-06 08:05 27.47629 -127.40755 30230 ft 470 kts 237°
2026-05-06 08:05 27.43482 -127.46451 30227 ft 470 kts 237°
2026-05-06 08:06 27.39332 -127.52142 30221 ft 470 kts 236°
2026-05-06 08:06 27.35179 -127.57829 30224 ft 470 kts 236°
2026-05-06 08:07 27.31026 -127.63510 30231 ft 471 kts 236°